Rochester, NH

11:14 PM EST on November 22, 2017 (GMT -0500)
Skyhaven

Weather History for KDAW - February, 2013

Change the Weather History Date:

Wednesday, February 20, 2013

  Actual Average (KPSM) Record (KPSM)
Temperature  
Mean Temperature 32 °F -  
Max Temperature 37 °F 35 °F 64 °F (1994)
Min Temperature 25 °F 19 °F -6 °F (1993)
Degree Days  
Heating Degree Days 34    
Moisture  
Dew Point 23 °F    
Average Humidity 69    
Maximum Humidity 97    
Minimum Humidity 48    
Precipitation  
Precipitation 0.00 in - - ()
Sea Level Pressure  
Sea Level Pressure 29.56 in    
Wind  
Wind Speed 6 mph (WNW)    
Max Wind Speed 16 mph    
Max Gust Speed 28 mph    
Visibility 9 miles    
Events Fog , Snow    
Averages and records for this station are not official NWS values.
T = Trace of Precipitation, MM = Missing Value Source: NWS Daily Summary

Daily Weather History Graph

Daily Weather History Graph

Search for Another Location

Airport or City:

Trip Planner

Search our weather history database for the weather conditions in past years. The results will help you decide how hot, cold, wet, or windy it might be!

Date:

Astronomy

Feb. 20, 2013 Rise Set
Actual Time 6:33 AM EST 5:21 PM EST
Civil Twilight 6:04 AM EST 5:50 PM EST
Nautical Twilight 5:31 AM EST 6:23 PM EST
Astronomical Twilight 4:58 AM EST 6:56 PM EST
Moon 12:35 PM EST (2/20) 2:56 AM EST (2/20)
Length of Visible Light 11h 45m
Length of Day
10h 47m
Waxing Gibbous, 76% of the Moon is Illuminated
Feb 20
Waxing Gibbous
Feb 25
Full
Mar 4
Last Quarter
Mar 11
New
Mar 19
First Quarter

Hourly Weather History & Observations

Time (EST) Temp. Windchill Dew Point Humidity Pressure Visibility Wind Dir Wind Speed Gust Speed Precip Events Conditions
12:51 AM 37.9 °F - 37.0 °F 97% 29.51 in 0.5 mi Calm Calm - 0.00 in Fog Fog
1:25 AM 37.4 °F - 35.6 °F 93% 29.50 in 1.0 mi Calm Calm - N/A   Overcast
1:31 AM 37.4 °F 34.9 °F 35.6 °F 93% 29.49 in 3.0 mi Variable 3.5 mph - N/A   Overcast
1:51 AM 37.0 °F 33.3 °F 36.0 °F 96% 29.49 in 10.0 mi Variable 4.6 mph - N/A   Mostly Cloudy
2:51 AM 36.0 °F 33.3 °F 34.0 °F 93% 29.46 in 10.0 mi Variable 3.5 mph - N/A   Overcast
3:51 AM 35.1 °F 29.3 °F 33.1 °F 92% 29.48 in 10.0 mi West 6.9 mph - N/A   Partly Cloudy
4:17 AM 35.6 °F 30.7 °F 32.0 °F 87% 29.48 in 10.0 mi Variable 5.8 mph - N/A   Overcast
4:51 AM 35.1 °F 28.6 °F 30.0 °F 82% 29.49 in 10.0 mi West 8.1 mph 16.1 mph N/A   Overcast
5:04 AM 33.8 °F 27.7 °F 28.4 °F 81% 29.50 in 10.0 mi Variable 6.9 mph - N/A   Overcast
5:51 AM 34.0 °F 26.0 °F 26.1 °F 73% 29.51 in 10.0 mi West 10.4 mph 26.5 mph N/A   Overcast
6:26 AM 33.8 °F 26.4 °F 26.6 °F 75% 29.52 in 10.0 mi WNW 9.2 mph - N/A   Overcast
6:51 AM 33.1 °F 26.9 °F 24.1 °F 70% 29.54 in 10.0 mi Variable 6.9 mph 17.3 mph N/A   Overcast
7:51 AM 32.0 °F 25.6 °F 23.0 °F 69% 29.55 in 10.0 mi Variable 6.9 mph - N/A   Overcast
8:28 AM 32.0 °F 24.2 °F 19.4 °F 60% 29.55 in 10.0 mi West 9.2 mph - N/A   Overcast
8:51 AM 32.0 °F 24.2 °F 19.0 °F 59% 29.56 in 10.0 mi West 9.2 mph 26.5 mph N/A   Overcast
9:51 AM 32.0 °F 22.5 °F 19.0 °F 59% 29.57 in 10.0 mi WNW 12.7 mph 21.9 mph N/A   Overcast
10:51 AM 32.0 °F 24.8 °F 18.0 °F 56% 29.58 in 10.0 mi West 8.1 mph - N/A   Overcast
11:51 AM 33.1 °F 24.9 °F 18.0 °F 54% 29.57 in 10.0 mi WNW 10.4 mph 19.6 mph N/A   Overcast
12:51 PM 33.1 °F 25.5 °F 16.0 °F 50% 29.56 in 10.0 mi West 9.2 mph - N/A   Overcast
1:51 PM 33.1 °F 26.1 °F 16.0 °F 50% 29.55 in 10.0 mi West 8.1 mph 16.1 mph N/A   Overcast
2:51 PM 33.1 °F 23.9 °F 15.1 °F 48% 29.55 in 10.0 mi WNW 12.7 mph 19.6 mph N/A   Overcast
3:51 PM 32.0 °F 21.2 °F 14.0 °F 48% 29.57 in 10.0 mi WNW 16.1 mph 23.0 mph N/A   Overcast
4:51 PM 30.9 °F 21.2 °F 14.0 °F 50% 29.59 in 10.0 mi WNW 12.7 mph 24.2 mph N/A   Overcast
5:51 PM 28.9 °F 21.1 °F 17.1 °F 61% 29.61 in 10.0 mi West 8.1 mph 27.6 mph N/A   Overcast
6:51 PM 27.0 °F 19.5 °F 19.0 °F 72% 29.64 in 5.0 mi West 6.9 mph - 0.00 in Snow Light Snow
7:51 PM 28.0 °F 19.3 °F 14.0 °F 56% 29.65 in 10.0 mi West 9.2 mph 18.4 mph 0.00 in   Mostly Cloudy
8:51 PM 27.0 °F 20.5 °F 12.9 °F 56% 29.66 in 10.0 mi Variable 5.8 mph 17.3 mph N/A   Scattered Clouds
10:51 PM 26.1 °F 17.6 °F 12.0 °F 55% 29.69 in 10.0 mi WNW 8.1 mph - N/A   Clear
11:51 PM 25.0 °F 17.1 °F 12.0 °F 58% 29.70 in 10.0 mi Variable 6.9 mph - N/A   Clear